AFL297 WADD-UUEE

Flight info

Callsign AFL297
Flight time N/A
Altitude 34000
Route KOLTA G464 PNK N875 BOBOB M761 VPK M751 VKB A334 HTY W14 PUT L515 OBMOG M770 LALAT/N0500F360 M770 KAKID M875 BUTOP/N0497F380 M875 JHANG A466 SITAX M875 AMDAR/K0904F380 M875 MILSO/K0911F400 M161 DENUD T784 LARNO T291 URIDU L158 DIMGI DIMGI3F
Aircraft A359/H-SDE2E3GHIJ1J3J4J5LM1ORWXY/LB1D1

Departure

Time N/A
Airport Denpasar I Gusti Ngurah Rai International Airport (WADD)

Arrival

Time 2026-05-07 18:14
Airport Sheremetyevo International Airport (UUEE)
Time Latitude Longitude Altitude Speed Heading
2026-05-07 11:59 25.37520 81.10986 35855 ft 447 kts 303°
2026-05-07 11:59 25.41344 81.05525 35829 ft 450 kts 303°
2026-05-07 12:00 25.45182 81.00041 35830 ft 451 kts 303°
2026-05-07 12:00 25.49022 80.94550 35834 ft 451 kts 303°
2026-05-07 12:01 25.52860 80.89054 35837 ft 451 kts 303°
2026-05-07 12:01 25.56684 80.83571 35834 ft 450 kts 303°
2026-05-07 12:02 25.60507 80.78083 35843 ft 450 kts 303°
2026-05-07 12:02 25.64325 80.72595 35845 ft 450 kts 303°
2026-05-07 12:03 25.68143 80.67099 35846 ft 451 kts 303°
2026-05-07 12:03 25.71971 80.61584 35853 ft 452 kts 303°
2026-05-07 12:04 25.75802 80.56059 35854 ft 452 kts 303°
2026-05-07 12:04 25.79627 80.50534 35853 ft 452 kts 303°
2026-05-07 12:05 25.83454 80.45002 35853 ft 451 kts 303°
2026-05-07 12:05 25.87249 80.39508 35854 ft 452 kts 303°
2026-05-07 12:06 25.91069 80.33971 35851 ft 452 kts 303°
2026-05-07 12:06 25.94889 80.28427 35866 ft 452 kts 304°
2026-05-07 12:07 25.98738 80.22894 35861 ft 453 kts 305°
2026-05-07 12:07 26.02724 80.17453 35859 ft 454 kts 306°
2026-05-07 12:08 26.06731 80.12024 35861 ft 454 kts 306°
2026-05-07 12:08 26.10715 80.06582 35861 ft 453 kts 306°
2026-05-07 12:09 26.14685 80.01127 35859 ft 453 kts 306°
2026-05-07 12:09 26.18648 79.95668 35871 ft 453 kts 306°
2026-05-07 12:10 26.22609 79.90205 35874 ft 454 kts 306°
2026-05-07 12:10 26.26588 79.84712 35872 ft 456 kts 306°
2026-05-07 12:11 26.30571 79.79208 35861 ft 456 kts 306°
2026-05-07 12:11 26.34548 79.73709 35859 ft 455 kts 306°
2026-05-07 12:12 26.38511 79.68220 35882 ft 454 kts 306°
2026-05-07 12:12 26.42470 79.62729 35883 ft 454 kts 306°
2026-05-07 12:13 26.46429 79.57232 35880 ft 454 kts 306°
2026-05-07 12:13 26.50388 79.51727 35880 ft 455 kts 306°
2026-05-07 12:14 26.54356 79.46203 35879 ft 457 kts 306°
2026-05-07 12:14 26.58305 79.40701 35867 ft 457 kts 306°
2026-05-07 12:15 26.62264 79.35177 35864 ft 455 kts 306°
2026-05-07 12:15 26.66219 79.29653 35873 ft 455 kts 306°
2026-05-07 12:16 26.70169 79.24127 35868 ft 455 kts 306°
2026-05-07 12:16 26.74114 79.18602 35868 ft 455 kts 306°
2026-05-07 12:17 26.78063 79.13064 35857 ft 455 kts 306°
2026-05-07 12:17 26.82016 79.07514 35853 ft 456 kts 306°
2026-05-07 12:18 26.85968 79.01959 35853 ft 455 kts 306°
2026-05-07 12:18 26.89904 78.96421 35848 ft 454 kts 306°
2026-05-07 12:19 26.93830 78.90888 35843 ft 454 kts 306°
2026-05-07 12:19 26.97755 78.85349 35843 ft 454 kts 306°
2026-05-07 12:20 27.01681 78.79804 35840 ft 454 kts 306°
2026-05-07 12:20 27.05606 78.74250 35837 ft 456 kts 307°
2026-05-07 12:21 27.09552 78.68661 35834 ft 457 kts 307°
2026-05-07 12:21 27.13496 78.63069 35832 ft 456 kts 307°
2026-05-07 12:22 27.17424 78.57493 35834 ft 455 kts 307°
2026-05-07 12:22 27.21350 78.51910 35835 ft 455 kts 307°
2026-05-07 12:23 27.25275 78.46323 35835 ft 455 kts 307°
2026-05-07 12:23 27.29195 78.40737 35862 ft 455 kts 307°
2026-05-07 12:24 27.33117 78.35138 35828 ft 456 kts 307°
2026-05-07 12:24 27.37038 78.29535 35833 ft 456 kts 307°
2026-05-07 12:25 27.40959 78.23926 35825 ft 456 kts 307°
2026-05-07 12:25 27.44878 78.18312 35829 ft 456 kts 307°
2026-05-07 12:26 27.48794 78.12695 35811 ft 456 kts 307°
2026-05-07 12:26 27.52705 78.07077 35823 ft 456 kts 307°
2026-05-07 12:27 27.56616 78.01452 35832 ft 456 kts 307°
2026-05-07 12:27 27.60526 77.95821 35825 ft 456 kts 307°
2026-05-07 12:28 27.64430 77.90193 35815 ft 455 kts 307°
2026-05-07 12:28 27.68324 77.84572 35830 ft 455 kts 307°
2026-05-07 12:29 27.72214 77.78948 35824 ft 454 kts 307°
2026-05-07 12:29 27.76076 77.73357 35813 ft 455 kts 307°
2026-05-07 12:30 27.79959 77.67729 35813 ft 454 kts 307°
2026-05-07 12:30 27.83843 77.62094 35812 ft 454 kts 307°
2026-05-07 12:31 27.87067 77.57409 35816 ft 454 kts 307°
2026-05-07 12:31 27.90940 77.51775 35814 ft 453 kts 307°
2026-05-07 12:32 27.94807 77.46142 35814 ft 453 kts 307°
2026-05-07 12:32 27.98673 77.40504 35820 ft 453 kts 307°
2026-05-07 12:33 28.04464 77.32043 35814 ft 453 kts 307°
2026-05-07 12:33 28.08324 77.26394 35826 ft 453 kts 307°
2026-05-07 12:34 28.12169 77.20759 35819 ft 452 kts 307°
2026-05-07 12:34 28.16014 77.15119 35815 ft 451 kts 307°
2026-05-07 12:35 28.19845 77.09491 35818 ft 451 kts 307°
2026-05-07 12:35 28.23670 77.03864 35824 ft 451 kts 307°
2026-05-07 12:36 28.27496 76.98228 35825 ft 451 kts 307°
2026-05-07 12:36 28.31319 76.92589 35828 ft 451 kts 307°
2026-05-07 12:37 28.35140 76.86946 35818 ft 451 kts 308°
2026-05-07 12:37 28.38947 76.81315 35819 ft 448 kts 308°
2026-05-07 12:38 28.42706 76.75749 35813 ft 447 kts 308°
2026-05-07 12:38 28.46485 76.70146 35812 ft 447 kts 308°
2026-05-07 12:39 28.50263 76.64537 35806 ft 447 kts 308°
2026-05-07 12:39 28.54036 76.58928 35805 ft 447 kts 308°
2026-05-07 12:40 28.57807 76.53313 35827 ft 447 kts 308°
2026-05-07 12:40 28.61583 76.47685 35806 ft 448 kts 308°
2026-05-07 12:41 28.65363 76.42043 35807 ft 448 kts 308°
2026-05-07 12:41 28.69143 76.36393 35818 ft 448 kts 308°
2026-05-07 12:42 28.72919 76.30742 35809 ft 448 kts 308°
2026-05-07 12:42 28.76692 76.25087 35809 ft 448 kts 308°
2026-05-07 12:43 28.80465 76.19425 35810 ft 448 kts 308°
2026-05-07 12:43 28.84235 76.13760 35783 ft 449 kts 308°
2026-05-07 12:44 28.88012 76.08078 35819 ft 449 kts 308°
2026-05-07 12:44 28.89874 76.05230 35804 ft 445 kts 296°
2026-05-07 12:44 28.91648 76.02329 35800 ft 447 kts 307°
2026-05-07 12:45 28.95353 75.96679 35809 ft 447 kts 306°
2026-05-07 12:45 28.99164 75.91047 35803 ft 449 kts 309°
2026-05-07 12:46 29.02990 75.85410 35809 ft 449 kts 308°
2026-05-07 12:46 29.06776 75.79732 35827 ft 449 kts 308°
2026-05-07 12:47 29.10535 75.74037 35792 ft 447 kts 308°
2026-05-07 12:47 29.14265 75.68362 35793 ft 445 kts 308°
2026-05-07 12:48 29.17985 75.62697 35787 ft 445 kts 308°
2026-05-07 12:48 29.21709 75.57024 35787 ft 445 kts 308°
2026-05-07 12:49 29.25428 75.51352 35782 ft 445 kts 308°
2026-05-07 12:49 29.29145 75.45675 35775 ft 445 kts 308°
2026-05-07 12:50 29.32849 75.40008 36100 ft 440 kts 308°
2026-05-07 12:50 29.34668 75.37219 36573 ft 433 kts 308°
2026-05-07 12:50 29.36457 75.34457 36875 ft 430 kts 308°
2026-05-07 12:51 29.38232 75.31708 37103 ft 428 kts 307°
2026-05-07 12:51 29.40003 75.28962 37270 ft 428 kts 307°
2026-05-07 12:51 29.41771 75.26221 37442 ft 427 kts 307°
2026-05-07 12:51 29.43533 75.23489 37603 ft 426 kts 307°
2026-05-07 12:52 29.45298 75.20750 37729 ft 426 kts 307°
2026-05-07 12:52 29.47064 75.18011 37748 ft 428 kts 307°
2026-05-07 12:52 29.50625 75.12485 37749 ft 431 kts 307°
2026-05-07 12:53 29.54183 75.06952 37750 ft 431 kts 307°
2026-05-07 12:53 29.57741 75.01412 37740 ft 431 kts 308°
2026-05-07 12:54 29.61297 74.95869 37744 ft 431 kts 308°
2026-05-07 12:54 29.64824 74.90364 37743 ft 431 kts 307°
2026-05-07 12:55 29.68376 74.84813 37746 ft 431 kts 307°
2026-05-07 12:55 29.71923 74.79261 37747 ft 431 kts 307°
2026-05-07 12:56 29.75470 74.73701 37736 ft 431 kts 307°
2026-05-07 12:56 29.79015 74.68138 37749 ft 431 kts 307°
2026-05-07 12:57 29.82563 74.62562 37727 ft 432 kts 307°
2026-05-07 12:57 29.86114 74.56974 37728 ft 432 kts 307°
2026-05-07 12:58 29.89664 74.51379 37728 ft 433 kts 307°
2026-05-07 12:58 29.93213 74.45777 37728 ft 433 kts 307°
2026-05-07 12:59 29.96760 74.40173 37728 ft 433 kts 307°
2026-05-07 12:59 30.00303 74.34566 37702 ft 432 kts 307°
2026-05-07 13:00 30.03832 74.28973 37727 ft 431 kts 307°
2026-05-07 13:00 30.07364 74.23369 37723 ft 432 kts 307°
2026-05-07 13:01 30.10896 74.17756 37719 ft 432 kts 307°
2026-05-07 13:01 30.14431 74.12131 37717 ft 432 kts 307°
2026-05-07 13:02 30.17962 74.06505 37712 ft 432 kts 307°
2026-05-07 13:02 30.21488 74.00878 37714 ft 432 kts 307°
2026-05-07 13:03 30.25006 73.95258 37715 ft 430 kts 307°
2026-05-07 13:03 30.28505 73.89677 37716 ft 428 kts 307°
2026-05-07 13:04 30.32005 73.84091 37724 ft 428 kts 307°
2026-05-07 13:04 30.35475 73.78544 37725 ft 428 kts 307°
2026-05-07 13:05 30.38965 73.72958 37728 ft 428 kts 307°
2026-05-07 13:05 30.42456 73.67360 37726 ft 428 kts 307°
2026-05-07 13:06 30.45940 73.61766 37728 ft 427 kts 307°
2026-05-07 13:06 30.49409 73.56188 37736 ft 426 kts 307°
2026-05-07 13:07 30.52876 73.50607 37736 ft 427 kts 307°
2026-05-07 13:07 30.56341 73.45019 37738 ft 427 kts 307°
2026-05-07 13:08 30.59806 73.39424 37741 ft 427 kts 307°
2026-05-07 13:08 30.63269 73.33826 37741 ft 427 kts 307°
2026-05-07 13:09 30.66728 73.28224 37742 ft 426 kts 307°
2026-05-07 13:09 30.70179 73.22635 37765 ft 425 kts 307°
2026-05-07 13:10 30.73624 73.17044 37746 ft 426 kts 307°
2026-05-07 13:10 30.77075 73.11435 37752 ft 427 kts 307°
2026-05-07 13:11 30.80525 73.05820 37752 ft 426 kts 307°
2026-05-07 13:11 30.83970 73.00207 37755 ft 426 kts 307°
2026-05-07 13:12 30.87415 72.94584 37730 ft 426 kts 307°
2026-05-07 13:12 30.90852 72.88969 37756 ft 425 kts 307°
2026-05-07 13:13 30.94277 72.83364 37761 ft 425 kts 306°
2026-05-07 13:13 30.97709 72.77740 37758 ft 426 kts 306°
2026-05-07 13:14 31.01139 72.72111 37763 ft 426 kts 306°
2026-05-07 13:14 31.04566 72.66478 37760 ft 426 kts 306°
2026-05-07 13:15 31.07990 72.60843 37760 ft 426 kts 306°
2026-05-07 13:15 31.11385 72.55247 37760 ft 425 kts 306°
2026-05-07 13:16 31.14792 72.49623 37760 ft 425 kts 306°
2026-05-07 13:16 31.18214 72.43967 37758 ft 427 kts 306°
2026-05-07 13:17 31.21635 72.38305 37752 ft 427 kts 306°
2026-05-07 13:17 31.25056 72.32634 37752 ft 427 kts 306°
2026-05-07 13:18 31.28168 72.26712 37754 ft 428 kts 301°
2026-05-07 13:18 31.31037 72.20619 37751 ft 427 kts 300°
2026-05-07 13:19 31.33860 72.14513 37752 ft 426 kts 300°
2026-05-07 13:19 31.36680 72.08405 37744 ft 427 kts 300°
2026-05-07 13:20 31.39033 72.03314 37746 ft 428 kts 300°
2026-05-07 13:20 31.41867 71.97181 37741 ft 428 kts 300°
2026-05-07 13:21 31.44696 71.91048 37744 ft 428 kts 300°
2026-05-07 13:21 31.47519 71.84920 37742 ft 426 kts 300°
2026-05-07 13:22 31.50327 71.78811 37736 ft 426 kts 300°
2026-05-07 13:22 31.53131 71.72703 37741 ft 426 kts 300°
2026-05-07 13:23 31.55936 71.66584 37739 ft 426 kts 300°
2026-05-07 13:23 31.58743 71.60450 37735 ft 428 kts 300°
2026-05-07 13:24 31.61561 71.54289 37721 ft 428 kts 300°
2026-05-07 13:24 31.64359 71.48139 37732 ft 426 kts 300°
2026-05-07 13:25 31.67147 71.42000 37735 ft 426 kts 300°
2026-05-07 13:25 31.69916 71.35900 37737 ft 426 kts 300°
2026-05-07 13:26 31.72702 71.29755 37730 ft 426 kts 300°
2026-05-07 13:26 31.75483 71.23609 37731 ft 427 kts 300°
2026-05-07 13:27 31.78271 71.17440 37727 ft 428 kts 300°
2026-05-07 13:27 31.81057 71.11263 37727 ft 428 kts 299°
2026-05-07 13:28 31.83842 71.05079 37727 ft 428 kts 299°
2026-05-07 13:28 31.86624 70.98890 37724 ft 428 kts 299°
2026-05-07 13:29 31.89514 70.92777 37725 ft 427 kts 304°
2026-05-07 13:29 31.93397 70.87525 37707 ft 427 kts 318°
2026-05-07 13:30 31.98285 70.83526 37724 ft 429 kts 326°
2026-05-07 13:30 32.03418 70.79898 37730 ft 431 kts 327°
2026-05-07 13:31 32.08579 70.76309 37733 ft 431 kts 327°
2026-05-07 13:31 32.13729 70.72693 37727 ft 431 kts 326°
2026-05-07 13:32 32.18870 70.69055 37750 ft 431 kts 326°
2026-05-07 13:32 32.24015 70.65401 37735 ft 432 kts 326°
2026-05-07 13:33 32.29163 70.61742 37737 ft 432 kts 326°
2026-05-07 13:33 32.34314 70.58077 37735 ft 432 kts 326°
2026-05-07 13:34 32.42006 70.52597 37735 ft 432 kts 326°
2026-05-07 13:35 32.47143 70.48930 37747 ft 431 kts 326°
2026-05-07 13:35 32.52272 70.45263 37758 ft 431 kts 326°
2026-05-07 13:36 32.57406 70.41593 37765 ft 431 kts 326°
2026-05-07 13:36 32.62535 70.37916 37766 ft 431 kts 326°
2026-05-07 13:37 32.67666 70.34237 37767 ft 432 kts 326°
2026-05-07 13:37 32.72827 70.30542 37792 ft 434 kts 326°
2026-05-07 13:38 32.77995 70.26838 37793 ft 434 kts 326°
2026-05-07 13:38 32.83163 70.23125 37798 ft 434 kts 326°
2026-05-07 13:39 32.88327 70.19413 37819 ft 434 kts 326°
2026-05-07 13:39 32.93516 70.15680 37829 ft 438 kts 326°
2026-05-07 13:40 32.98724 70.11925 37822 ft 438 kts 326°
2026-05-07 13:40 33.03929 70.08169 37824 ft 437 kts 326°
2026-05-07 13:41 33.09126 70.04413 37846 ft 437 kts 326°
2026-05-07 13:41 33.14473 70.00916 37842 ft 440 kts 329°
2026-05-07 13:42 33.19924 69.97594 37850 ft 440 kts 329°
2026-05-07 13:42 33.25357 69.94240 37850 ft 439 kts 329°
2026-05-07 13:43 33.30765 69.90839 37886 ft 439 kts 329°
2026-05-07 13:43 33.36170 69.87415 37892 ft 440 kts 329°
2026-05-07 13:44 33.41579 69.83983 37895 ft 441 kts 329°
2026-05-07 13:44 33.46994 69.80544 37903 ft 440 kts 329°
2026-05-07 13:45 33.52410 69.77100 37925 ft 440 kts 328°
2026-05-07 13:45 33.57854 69.73702 37943 ft 442 kts 329°
2026-05-07 13:46 33.63333 69.70320 37944 ft 443 kts 329°
2026-05-07 13:46 33.68813 69.66928 37963 ft 443 kts 329°
2026-05-07 13:47 33.74297 69.63522 37979 ft 444 kts 329°
2026-05-07 13:47 33.79790 69.60104 37970 ft 446 kts 329°
2026-05-07 13:48 33.85258 69.56685 37993 ft 446 kts 329°
2026-05-07 13:48 33.90757 69.53243 37981 ft 445 kts 329°
2026-05-07 13:49 33.96264 69.49809 37970 ft 445 kts 329°
2026-05-07 13:49 34.01768 69.46376 37964 ft 446 kts 329°
2026-05-07 13:50 34.07276 69.42926 37953 ft 446 kts 329°
2026-05-07 13:50 34.12778 69.39457 37937 ft 446 kts 329°
2026-05-07 13:51 34.18295 69.36019 37920 ft 447 kts 329°
2026-05-07 13:51 34.23811 69.32566 37921 ft 447 kts 329°
2026-05-07 13:52 34.29337 69.29087 37900 ft 448 kts 329°
2026-05-07 13:52 34.34868 69.25605 37909 ft 448 kts 329°
2026-05-07 13:53 34.40403 69.22117 37901 ft 449 kts 329°
2026-05-07 13:53 34.45938 69.18627 37894 ft 449 kts 329°
2026-05-07 13:54 34.51448 69.15149 37900 ft 449 kts 329°
2026-05-07 13:54 34.56977 69.11624 37921 ft 449 kts 329°
2026-05-07 13:55 34.62485 69.08050 37927 ft 449 kts 328°
2026-05-07 13:55 34.67995 69.04472 37927 ft 449 kts 328°
2026-05-07 13:56 34.73509 69.00897 37935 ft 449 kts 329°
2026-05-07 13:56 34.79018 68.97321 37971 ft 448 kts 328°
2026-05-07 13:57 34.84513 68.93751 37973 ft 447 kts 328°
2026-05-07 13:57 34.90012 68.90180 37999 ft 449 kts 329°
2026-05-07 13:58 34.95543 68.86577 38031 ft 452 kts 329°
2026-05-07 13:58 35.01081 68.82966 38071 ft 450 kts 328°
2026-05-07 13:59 35.06598 68.79361 38096 ft 450 kts 328°
2026-05-07 13:59 35.12107 68.75754 38095 ft 448 kts 328°
2026-05-07 14:00 35.17603 68.72152 38132 ft 448 kts 328°
2026-05-07 14:00 35.23097 68.68547 38146 ft 448 kts 329°
2026-05-07 14:01 35.28589 68.64938 38149 ft 448 kts 328°
2026-05-07 14:01 35.34085 68.61325 38136 ft 451 kts 329°
2026-05-07 14:02 35.39628 68.57670 38119 ft 453 kts 329°
2026-05-07 14:02 35.45172 68.53997 38131 ft 455 kts 328°
2026-05-07 14:03 35.50735 68.50317 38129 ft 454 kts 329°
2026-05-07 14:03 35.56280 68.46660 38078 ft 455 kts 328°
2026-05-07 14:04 35.61852 68.42959 38088 ft 455 kts 328°
2026-05-07 14:04 35.67416 68.39244 38087 ft 455 kts 328°
2026-05-07 14:05 35.72979 68.35501 38076 ft 457 kts 328°
2026-05-07 14:05 35.78555 68.31747 38089 ft 457 kts 328°
2026-05-07 14:06 35.84132 68.27998 38071 ft 456 kts 328°
2026-05-07 14:06 35.89700 68.24250 38069 ft 456 kts 328°
2026-05-07 14:07 35.95272 68.20493 38064 ft 457 kts 328°
2026-05-07 14:07 36.00860 68.16716 38064 ft 458 kts 328°
2026-05-07 14:08 36.06451 68.12933 38041 ft 458 kts 328°
2026-05-07 14:08 36.12040 68.09145 38040 ft 458 kts 328°
2026-05-07 14:09 36.17632 68.05350 38013 ft 460 kts 328°
2026-05-07 14:09 36.22295 68.02181 37992 ft 460 kts 328°
2026-05-07 14:10 36.27901 67.98363 37993 ft 460 kts 328°
2026-05-07 14:10 36.34417 67.93918 37977 ft 460 kts 328°
2026-05-07 14:11 36.39117 67.90705 37966 ft 461 kts 328°
2026-05-07 14:11 36.44739 67.86858 37963 ft 461 kts 328°
2026-05-07 14:12 36.50359 67.83007 37937 ft 461 kts 328°
2026-05-07 14:12 36.55976 67.79150 37940 ft 462 kts 328°
2026-05-07 14:13 36.61612 67.75280 37942 ft 463 kts 328°
2026-05-07 14:13 36.67245 67.71399 37935 ft 462 kts 328°
2026-05-07 14:14 36.72873 67.67514 37915 ft 462 kts 328°
2026-05-07 14:14 36.78472 67.63661 37906 ft 462 kts 328°
2026-05-07 14:15 36.84105 67.59787 37909 ft 462 kts 328°
2026-05-07 14:15 36.89736 67.55906 37889 ft 462 kts 328°
2026-05-07 14:16 36.95367 67.52018 37880 ft 463 kts 328°
2026-05-07 14:16 37.01002 67.48118 37870 ft 463 kts 328°
2026-05-07 14:17 37.06643 67.44208 37868 ft 463 kts 328°
2026-05-07 14:17 37.12282 67.40293 37865 ft 463 kts 328°
2026-05-07 14:18 37.17925 67.36369 37867 ft 464 kts 328°
2026-05-07 14:18 37.23554 67.32408 37856 ft 464 kts 327°
2026-05-07 14:19 37.29060 67.28192 37853 ft 463 kts 326°
2026-05-07 14:19 37.34533 67.23915 37854 ft 464 kts 326°
2026-05-07 14:20 37.40031 67.19660 37859 ft 464 kts 326°
2026-05-07 14:20 37.45542 67.15423 37853 ft 464 kts 326°
2026-05-07 14:21 37.51056 67.11186 37857 ft 464 kts 326°
2026-05-07 14:21 37.56577 67.06935 37874 ft 465 kts 326°
2026-05-07 14:22 37.62102 67.02671 37869 ft 466 kts 326°
2026-05-07 14:22 37.67628 66.98399 37895 ft 466 kts 326°
2026-05-07 14:23 37.73117 66.94147 37920 ft 466 kts 326°
2026-05-07 14:23 37.78645 66.89858 37937 ft 466 kts 326°
2026-05-07 14:24 37.84171 66.85563 37957 ft 466 kts 326°
2026-05-07 14:24 37.89688 66.81266 37986 ft 466 kts 326°
2026-05-07 14:25 37.95218 66.76954 37983 ft 467 kts 326°
2026-05-07 14:25 38.00757 66.72626 38006 ft 468 kts 326°
2026-05-07 14:26 38.06285 66.68280 38004 ft 467 kts 325°
2026-05-07 14:26 38.11795 66.63899 38004 ft 468 kts 325°
2026-05-07 14:27 38.17313 66.59505 37992 ft 468 kts 325°
2026-05-07 14:27 38.22836 66.55105 37993 ft 468 kts 325°
2026-05-07 14:28 38.28349 66.50712 37996 ft 467 kts 325°
2026-05-07 14:28 38.33863 66.46309 37965 ft 468 kts 325°
2026-05-07 14:29 38.39372 66.41900 37962 ft 468 kts 325°
2026-05-07 14:29 38.44883 66.37483 37938 ft 468 kts 325°
2026-05-07 14:30 38.50399 66.33051 37936 ft 469 kts 325°
2026-05-07 14:30 38.55915 66.28614 37940 ft 469 kts 325°
2026-05-07 14:31 38.61435 66.24166 37921 ft 469 kts 324°
2026-05-07 14:31 38.66959 66.19762 37917 ft 467 kts 325°
2026-05-07 14:32 38.72492 66.15411 37915 ft 467 kts 325°
2026-05-07 14:32 38.78021 66.11053 37908 ft 467 kts 325°
2026-05-07 14:33 38.83544 66.06678 37909 ft 467 kts 325°
2026-05-07 14:33 38.89038 66.02313 37910 ft 468 kts 325°
2026-05-07 14:34 38.94568 65.97911 37909 ft 468 kts 325°
2026-05-07 14:34 39.00096 65.93504 37920 ft 468 kts 325°
2026-05-07 14:35 39.05625 65.89087 37909 ft 467 kts 324°
2026-05-07 14:35 39.11148 65.84667 37906 ft 467 kts 324°
2026-05-07 14:36 39.16661 65.80247 37908 ft 467 kts 324°
2026-05-07 14:36 39.22184 65.75809 37909 ft 469 kts 324°
2026-05-07 14:37 39.27727 65.71348 37906 ft 469 kts 324°
2026-05-07 14:37 39.36035 65.64647 37915 ft 470 kts 324°
2026-05-07 14:38 39.41578 65.60164 37904 ft 470 kts 324°
2026-05-07 14:38 39.47106 65.55686 37908 ft 468 kts 324°
2026-05-07 14:39 39.52625 65.51207 37906 ft 468 kts 324°
2026-05-07 14:39 39.58142 65.46720 37904 ft 469 kts 324°
2026-05-07 14:40 39.63663 65.42221 37908 ft 469 kts 324°
2026-05-07 14:40 39.69183 65.37715 37911 ft 469 kts 324°
2026-05-07 14:41 39.74706 65.33197 37905 ft 470 kts 324°
2026-05-07 14:41 39.80242 65.28661 37909 ft 470 kts 324°
2026-05-07 14:42 39.85753 65.24137 37906 ft 468 kts 324°
2026-05-07 14:42 39.91267 65.19601 37893 ft 469 kts 323°
2026-05-07 14:43 39.96787 65.15050 37892 ft 470 kts 323°
2026-05-07 14:43 40.02270 65.10522 37901 ft 470 kts 323°
2026-05-07 14:44 40.07788 65.05956 37908 ft 470 kts 323°
2026-05-07 14:44 40.13308 65.01380 37907 ft 470 kts 323°
2026-05-07 14:45 40.18823 64.96798 37896 ft 469 kts 323°
2026-05-07 14:45 40.24331 64.92216 37899 ft 469 kts 323°
2026-05-07 14:46 40.29841 64.87620 37889 ft 470 kts 323°
2026-05-07 14:46 40.35357 64.83010 37877 ft 470 kts 323°
2026-05-07 14:47 40.40869 64.78396 37882 ft 470 kts 323°
2026-05-07 14:47 40.46379 64.73773 37881 ft 470 kts 323°
2026-05-07 14:48 40.51889 64.69142 37873 ft 470 kts 323°
2026-05-07 14:48 40.57397 64.64504 37876 ft 470 kts 323°
2026-05-07 14:49 40.62910 64.59850 37857 ft 471 kts 323°
2026-05-07 14:49 40.68430 64.55183 37857 ft 471 kts 323°
2026-05-07 14:50 40.73948 64.50508 37855 ft 472 kts 323°
2026-05-07 14:50 40.79467 64.45823 37846 ft 472 kts 323°
2026-05-07 14:51 40.84990 64.41125 37846 ft 472 kts 323°
2026-05-07 14:51 40.90511 64.36420 37857 ft 473 kts 323°
2026-05-07 14:52 40.96036 64.31701 37848 ft 472 kts 322°
2026-05-07 14:52 41.01543 64.26989 37856 ft 471 kts 322°
2026-05-07 14:53 41.07047 64.22268 37857 ft 472 kts 322°
2026-05-07 14:53 41.12561 64.17529 37844 ft 472 kts 322°
2026-05-07 14:54 41.18074 64.12783 37839 ft 473 kts 322°
2026-05-07 14:54 41.23589 64.08025 37842 ft 473 kts 322°
2026-05-07 14:55 41.29109 64.03252 37854 ft 473 kts 322°
2026-05-07 14:55 41.34595 63.98500 37851 ft 473 kts 322°
2026-05-07 14:56 41.40108 63.93715 37848 ft 474 kts 322°
2026-05-07 14:56 41.44749 63.89684 37847 ft 475 kts 322°
2026-05-07 14:57 41.51180 63.84086 37845 ft 475 kts 322°
2026-05-07 14:57 41.55780 63.80073 37844 ft 476 kts 322°
2026-05-07 14:58 41.61325 63.75227 37840 ft 477 kts 322°
2026-05-07 14:58 41.66878 63.70364 37840 ft 478 kts 322°
2026-05-07 14:59 41.72444 63.65480 37837 ft 478 kts 322°
2026-05-07 14:59 41.78006 63.60589 37837 ft 478 kts 322°
2026-05-07 15:00 41.83568 63.55688 37840 ft 478 kts 322°
2026-05-07 15:00 41.89123 63.50783 37843 ft 478 kts 321°
2026-05-07 15:01 41.94673 63.45870 37844 ft 478 kts 321°
2026-05-07 15:01 42.00220 63.40950 37843 ft 478 kts 321°
2026-05-07 15:02 42.05762 63.36024 37844 ft 478 kts 321°
2026-05-07 15:02 42.11303 63.31088 37846 ft 478 kts 321°
2026-05-07 15:03 42.16844 63.26143 37853 ft 478 kts 321°
2026-05-07 15:03 42.22382 63.21189 37853 ft 478 kts 321°
2026-05-07 15:04 42.27919 63.16226 37856 ft 478 kts 321°
2026-05-07 15:04 42.33452 63.11255 37859 ft 478 kts 321°
2026-05-07 15:05 42.38949 63.06307 37856 ft 478 kts 321°
2026-05-07 15:05 42.44481 63.01326 37856 ft 478 kts 321°
2026-05-07 15:06 42.50007 62.96326 37865 ft 477 kts 320°
2026-05-07 15:06 42.55532 62.91314 37865 ft 478 kts 320°
2026-05-07 15:07 42.61052 62.86299 37866 ft 477 kts 320°
2026-05-07 15:07 42.66570 62.81276 37870 ft 478 kts 320°
2026-05-07 15:08 42.72093 62.76239 37870 ft 478 kts 320°
2026-05-07 15:08 42.77615 62.71192 37869 ft 478 kts 320°
2026-05-07 15:09 42.83138 62.66132 37866 ft 480 kts 320°
2026-05-07 15:09 42.88677 62.61045 37866 ft 480 kts 320°
2026-05-07 15:10 42.94215 62.55951 37883 ft 480 kts 320°
2026-05-07 15:10 42.99741 62.50821 37879 ft 481 kts 320°
2026-05-07 15:11 43.05298 62.45696 37887 ft 482 kts 320°
2026-05-07 15:11 43.10845 62.40566 37894 ft 480 kts 320°
2026-05-07 15:12 43.16365 62.35392 37887 ft 481 kts 320°
2026-05-07 15:12 43.21920 62.30261 37890 ft 481 kts 320°
2026-05-07 15:13 43.27429 62.25149 37921 ft 481 kts 320°
2026-05-07 15:13 43.32961 62.19987 37902 ft 481 kts 319°
2026-05-07 15:14 43.38488 62.14809 37901 ft 481 kts 319°
2026-05-07 15:14 43.44013 62.09635 37926 ft 482 kts 320°
2026-05-07 15:15 43.49990 62.05237 37900 ft 491 kts 328°
2026-05-07 15:15 43.56166 62.01198 37917 ft 492 kts 328°
2026-05-07 15:16 43.62378 61.97211 37907 ft 492 kts 329°
2026-05-07 15:16 43.68586 61.93211 37907 ft 492 kts 329°
2026-05-07 15:17 43.74787 61.89190 37915 ft 492 kts 329°
2026-05-07 15:17 43.80985 61.85154 37916 ft 492 kts 328°
2026-05-07 15:18 43.87186 61.81105 37925 ft 493 kts 328°
2026-05-07 15:18 43.93389 61.77046 37925 ft 493 kts 328°
2026-05-07 15:19 43.99592 61.72978 37927 ft 494 kts 328°
2026-05-07 15:19 44.05817 61.68886 37924 ft 495 kts 328°
2026-05-07 15:20 44.12047 61.64783 37927 ft 495 kts 328°
2026-05-07 15:20 44.18276 61.60677 37930 ft 496 kts 329°
2026-05-07 15:21 44.24523 61.56550 37929 ft 497 kts 328°
2026-05-07 15:21 44.30765 61.52414 37935 ft 497 kts 328°
2026-05-07 15:22 44.37016 61.48263 37936 ft 498 kts 328°
2026-05-07 15:22 44.43277 61.44096 37934 ft 499 kts 328°
2026-05-07 15:23 44.49543 61.39918 37935 ft 499 kts 328°
2026-05-07 15:23 44.55809 61.35730 37935 ft 500 kts 328°
2026-05-07 15:24 44.62085 61.31523 37932 ft 500 kts 328°
2026-05-07 15:24 44.68364 61.27305 37962 ft 500 kts 328°
2026-05-07 15:25 44.74646 61.23075 37930 ft 501 kts 328°
2026-05-07 15:25 44.80928 61.18809 37930 ft 502 kts 328°
2026-05-07 15:26 44.87183 61.14586 37957 ft 502 kts 328°
2026-05-07 15:26 44.93484 61.10324 37930 ft 503 kts 328°
2026-05-07 15:27 44.99816 61.06020 37929 ft 507 kts 328°
2026-05-07 15:27 45.06158 61.01700 37938 ft 504 kts 328°
2026-05-07 15:28 45.12472 60.97388 37935 ft 504 kts 328°
2026-05-07 15:28 45.18783 60.93064 37927 ft 504 kts 328°
2026-05-07 15:29 45.25095 60.88728 37940 ft 504 kts 328°
2026-05-07 15:29 45.31410 60.84379 37923 ft 505 kts 328°
2026-05-07 15:30 45.37733 60.80016 37930 ft 505 kts 328°
2026-05-07 15:30 45.43644 60.74840 38195 ft 492 kts 314°
2026-05-07 15:31 45.46266 60.71719 38427 ft 490 kts 313°
2026-05-07 15:31 45.48827 60.68538 38608 ft 488 kts 312°
2026-05-07 15:31 45.51357 60.65315 38745 ft 487 kts 312°
2026-05-07 15:31 45.53872 60.62072 38863 ft 487 kts 312°
2026-05-07 15:32 45.56379 60.58826 38986 ft 487 kts 312°
2026-05-07 15:32 45.58887 60.55578 39128 ft 487 kts 312°
2026-05-07 15:32 45.63877 60.49126 39316 ft 487 kts 312°
2026-05-07 15:33 45.66423 60.45837 39452 ft 487 kts 312°
2026-05-07 15:33 45.68937 60.42589 39547 ft 487 kts 312°
2026-05-07 15:33 45.73958 60.36092 39765 ft 486 kts 312°
2026-05-07 15:34 45.78942 60.29624 39906 ft 488 kts 312°
2026-05-07 15:34 45.83971 60.23072 39925 ft 485 kts 306°
2026-05-07 15:35 45.88950 60.16464 39916 ft 489 kts 312°
2026-05-07 15:35 45.94003 60.09921 39917 ft 489 kts 312°
2026-05-07 15:36 45.99051 60.03351 39917 ft 490 kts 312°
2026-05-07 15:36 46.04083 59.96752 39917 ft 489 kts 312°
2026-05-07 15:37 46.09104 59.90132 39931 ft 490 kts 312°
2026-05-07 15:37 46.14130 59.83489 39915 ft 491 kts 312°
2026-05-07 15:38 46.19153 59.76834 39914 ft 491 kts 312°
2026-05-07 15:38 46.24176 59.70152 39916 ft 490 kts 311°
2026-05-07 15:39 46.29036 59.63261 39917 ft 489 kts 309°
2026-05-07 15:39 46.33822 59.56273 39917 ft 489 kts 309°
2026-05-07 15:40 46.38629 59.49293 39913 ft 489 kts 310°
2026-05-07 15:40 46.43452 59.42326 39916 ft 490 kts 310°
2026-05-07 15:41 46.48283 59.35345 39916 ft 490 kts 310°
2026-05-07 15:41 46.53112 59.28350 39917 ft 490 kts 310°
2026-05-07 15:42 46.57935 59.21342 39928 ft 490 kts 310°
2026-05-07 15:42 46.62757 59.14315 39911 ft 491 kts 310°
2026-05-07 15:43 46.67580 59.07269 39918 ft 491 kts 310°
2026-05-07 15:43 46.72394 59.00215 39919 ft 491 kts 310°
2026-05-07 15:44 46.77208 58.93142 39918 ft 492 kts 310°
2026-05-07 15:44 46.81992 58.86095 39915 ft 492 kts 310°
2026-05-07 15:45 46.86731 58.78954 39915 ft 491 kts 310°
2026-05-07 15:45 46.91554 58.71861 39908 ft 492 kts 310°
2026-05-07 15:46 46.98799 58.61184 39911 ft 493 kts 310°
2026-05-07 15:47 47.03603 58.54032 39911 ft 492 kts 310°
2026-05-07 15:47 47.07622 58.48023 39911 ft 492 kts 310°
2026-05-07 15:48 47.12386 58.40882 39908 ft 492 kts 310°
2026-05-07 15:48 47.17171 58.33690 39905 ft 492 kts 310°
2026-05-07 15:49 47.21958 58.26477 39909 ft 492 kts 310°
2026-05-07 15:49 47.26731 58.19266 39907 ft 492 kts 310°
2026-05-07 15:50 47.31509 58.12034 39902 ft 492 kts 310°
2026-05-07 15:50 47.36279 58.04787 39903 ft 492 kts 310°
2026-05-07 15:51 47.41041 57.97520 39907 ft 493 kts 310°
2026-05-07 15:51 47.45805 57.90232 39900 ft 493 kts 310°
2026-05-07 15:52 47.50571 57.82925 39897 ft 494 kts 310°
2026-05-07 15:52 47.55333 57.75606 39897 ft 494 kts 310°
2026-05-07 15:53 47.60089 57.68275 39897 ft 494 kts 310°
2026-05-07 15:53 47.64847 57.60926 39894 ft 495 kts 310°
2026-05-07 15:54 47.69612 57.53544 39892 ft 495 kts 310°
2026-05-07 15:54 47.74358 57.46156 39897 ft 495 kts 310°
2026-05-07 15:55 47.79108 57.38747 39886 ft 495 kts 310°
2026-05-07 15:55 47.83859 57.31319 39887 ft 495 kts 310°
2026-05-07 15:56 47.88606 57.23878 39889 ft 495 kts 310°
2026-05-07 15:56 47.93348 57.16421 39873 ft 496 kts 310°
2026-05-07 15:57 47.98078 57.08963 39890 ft 494 kts 310°
2026-05-07 15:57 48.02811 57.01476 39865 ft 496 kts 310°
2026-05-07 15:58 48.07545 56.93969 39874 ft 496 kts 310°
2026-05-07 15:58 48.12274 56.86447 39877 ft 496 kts 310°
2026-05-07 15:59 48.16998 56.78913 39869 ft 496 kts 310°
2026-05-07 15:59 48.21717 56.71364 39870 ft 496 kts 310°
2026-05-07 16:00 48.26399 56.63853 39872 ft 496 kts 310°
2026-05-07 16:00 48.31108 56.56276 39868 ft 496 kts 310°
2026-05-07 16:01 48.35813 56.48685 39865 ft 496 kts 310°
2026-05-07 16:01 48.40518 56.41081 39872 ft 496 kts 310°
2026-05-07 16:02 48.45218 56.33464 39859 ft 497 kts 310°
2026-05-07 16:02 48.49929 56.25808 39856 ft 498 kts 309°
2026-05-07 16:03 48.54612 56.18143 39857 ft 497 kts 310°
2026-05-07 16:03 48.59301 56.10498 39859 ft 497 kts 310°
2026-05-07 16:04 48.63989 56.02818 39855 ft 497 kts 310°
2026-05-07 16:04 48.68668 55.95121 39856 ft 497 kts 310°
2026-05-07 16:05 48.73345 55.87414 39857 ft 497 kts 310°
2026-05-07 16:05 48.78013 55.79681 39852 ft 497 kts 310°
2026-05-07 16:06 48.82675 55.71935 39853 ft 497 kts 310°
2026-05-07 16:06 48.87333 55.64185 39850 ft 497 kts 310°
2026-05-07 16:07 48.91979 55.56415 39853 ft 497 kts 310°
2026-05-07 16:07 48.96618 55.48627 39851 ft 497 kts 310°
2026-05-07 16:08 49.01254 55.40825 39851 ft 497 kts 310°
2026-05-07 16:08 49.05881 55.33020 39840 ft 496 kts 310°
2026-05-07 16:09 49.10501 55.25202 39843 ft 496 kts 310°
2026-05-07 16:09 49.15118 55.17366 39843 ft 496 kts 310°
2026-05-07 16:10 49.19734 55.09521 39843 ft 496 kts 310°
2026-05-07 16:10 49.24338 55.01658 39844 ft 496 kts 310°
2026-05-07 16:11 49.28940 54.93772 39844 ft 496 kts 310°
2026-05-07 16:11 49.33532 54.85886 39844 ft 496 kts 309°
2026-05-07 16:12 49.38129 54.77967 39845 ft 496 kts 309°
2026-05-07 16:12 49.42713 54.70046 39844 ft 496 kts 310°
2026-05-07 16:13 49.47259 54.62169 39846 ft 496 kts 310°
2026-05-07 16:13 49.51833 54.54219 39845 ft 496 kts 309°
2026-05-07 16:14 49.56397 54.46260 39845 ft 496 kts 309°
2026-05-07 16:14 49.60956 54.38285 39845 ft 495 kts 310°
2026-05-07 16:15 49.65503 54.30309 39848 ft 495 kts 309°
2026-05-07 16:15 49.70043 54.22320 39848 ft 495 kts 309°
2026-05-07 16:16 49.74576 54.14317 39854 ft 495 kts 310°
2026-05-07 16:16 49.79103 54.06301 39848 ft 494 kts 310°
2026-05-07 16:17 49.83619 53.98281 39849 ft 494 kts 310°
2026-05-07 16:17 49.88126 53.90250 39848 ft 494 kts 309°
2026-05-07 16:18 49.92638 53.82200 39852 ft 494 kts 310°
2026-05-07 16:18 49.97138 53.74129 39855 ft 494 kts 310°
2026-05-07 16:19 50.01632 53.66041 39852 ft 495 kts 310°
2026-05-07 16:19 50.06125 53.57933 39854 ft 495 kts 310°
2026-05-07 16:20 50.10613 53.49812 39854 ft 495 kts 309°
2026-05-07 16:20 50.15097 53.41671 39854 ft 495 kts 309°
2026-05-07 16:21 50.19580 53.33507 39863 ft 495 kts 309°
2026-05-07 16:21 50.24054 53.25335 39864 ft 495 kts 309°
2026-05-07 16:22 50.28522 53.17149 39861 ft 495 kts 309°
2026-05-07 16:22 50.32980 53.08952 39863 ft 494 kts 309°
2026-05-07 16:23 50.37401 53.00799 39864 ft 495 kts 309°
2026-05-07 16:23 50.41849 52.92569 39866 ft 494 kts 309°
2026-05-07 16:24 50.46288 52.84331 39865 ft 495 kts 309°
2026-05-07 16:24 50.50724 52.76072 39862 ft 494 kts 309°
2026-05-07 16:25 50.55150 52.67807 39866 ft 494 kts 308°
2026-05-07 16:25 50.59570 52.59522 39873 ft 494 kts 309°
2026-05-07 16:26 50.63986 52.51221 39859 ft 494 kts 309°
2026-05-07 16:26 50.68395 52.42909 39862 ft 494 kts 308°
2026-05-07 16:27 50.72810 52.34602 39878 ft 494 kts 309°
2026-05-07 16:27 50.77233 52.26292 39867 ft 493 kts 309°
2026-05-07 16:28 50.81636 52.17992 39865 ft 492 kts 309°
2026-05-07 16:28 50.86021 52.09693 39866 ft 492 kts 309°
2026-05-07 16:29 50.90399 52.01381 39881 ft 491 kts 309°
2026-05-07 16:29 50.94759 51.93072 39872 ft 489 kts 309°
2026-05-07 16:30 50.99103 51.84768 39875 ft 489 kts 309°
2026-05-07 16:30 51.03437 51.76454 39874 ft 489 kts 309°
2026-05-07 16:31 51.07764 51.68131 39875 ft 488 kts 309°
2026-05-07 16:31 51.12083 51.59796 39876 ft 488 kts 309°
2026-05-07 16:32 51.16969 51.52343 39869 ft 488 kts 322°
2026-05-07 16:32 51.22525 51.46113 39863 ft 489 kts 326°
2026-05-07 16:33 51.28206 51.40154 39860 ft 489 kts 326°
2026-05-07 16:33 51.32932 51.35200 39880 ft 488 kts 326°
2026-05-07 16:34 51.38594 51.29193 39881 ft 488 kts 326°
2026-05-07 16:34 51.45159 51.22164 39887 ft 488 kts 326°
2026-05-07 16:35 51.49903 51.17116 39887 ft 488 kts 326°
2026-05-07 16:35 51.55581 51.11137 39887 ft 488 kts 326°
2026-05-07 16:36 51.61257 51.05143 39882 ft 488 kts 326°
2026-05-07 16:36 51.67071 50.99521 39885 ft 489 kts 335°
2026-05-07 16:37 51.73504 50.96003 39896 ft 489 kts 343°
2026-05-07 16:37 51.80028 50.93145 39892 ft 489 kts 345°
2026-05-07 16:38 51.86619 50.90368 39888 ft 489 kts 344°
2026-05-07 16:38 51.93096 50.87052 39888 ft 488 kts 334°
2026-05-07 16:39 51.98782 50.81145 39883 ft 486 kts 320°
2026-05-07 16:39 52.03950 50.74069 39898 ft 486 kts 318°
2026-05-07 16:40 52.09025 50.66807 39887 ft 487 kts 318°
2026-05-07 16:40 52.14110 50.59519 39889 ft 487 kts 318°
2026-05-07 16:41 52.19197 50.52254 39898 ft 486 kts 318°
2026-05-07 16:41 52.24287 50.44984 39885 ft 487 kts 318°
2026-05-07 16:42 52.29373 50.37700 39886 ft 486 kts 318°
2026-05-07 16:42 52.34450 50.30404 39900 ft 486 kts 318°
2026-05-07 16:43 52.39527 50.23083 39895 ft 487 kts 318°
2026-05-07 16:43 52.44599 50.15744 39890 ft 487 kts 318°
2026-05-07 16:44 52.49673 50.08381 39893 ft 487 kts 318°
2026-05-07 16:44 52.54686 50.00913 39912 ft 487 kts 313°
2026-05-07 16:45 52.58682 49.91996 39898 ft 485 kts 300°
2026-05-07 16:45 52.61991 49.82330 39918 ft 485 kts 298°
2026-05-07 16:46 52.65179 49.72533 39921 ft 486 kts 297°
2026-05-07 16:46 52.68362 49.62715 39915 ft 486 kts 298°
2026-05-07 16:47 52.71553 49.52902 39915 ft 485 kts 297°
2026-05-07 16:47 52.74740 49.43094 39921 ft 485 kts 298°
2026-05-07 16:48 52.77922 49.33268 39931 ft 485 kts 297°
2026-05-07 16:48 52.81092 49.23436 39929 ft 484 kts 297°
2026-05-07 16:49 52.84231 49.13660 39918 ft 485 kts 297°
2026-05-07 16:49 52.87380 49.03811 39917 ft 484 kts 297°
2026-05-07 16:50 52.90516 48.93965 39921 ft 483 kts 297°
2026-05-07 16:50 52.93646 48.84100 39922 ft 484 kts 297°
2026-05-07 16:51 52.96772 48.74212 39926 ft 484 kts 297°
2026-05-07 16:51 52.99876 48.64308 39942 ft 483 kts 297°
2026-05-07 16:52 53.02968 48.54405 39936 ft 484 kts 297°
2026-05-07 16:52 53.06059 48.44474 39943 ft 483 kts 297°
2026-05-07 16:53 53.09152 48.34557 39936 ft 483 kts 298°
2026-05-07 16:53 53.13157 48.25611 39963 ft 484 kts 313°
2026-05-07 16:54 53.17926 48.17703 39945 ft 483 kts 315°
2026-05-07 16:54 53.22798 48.09981 39951 ft 484 kts 316°
2026-05-07 16:55 53.27671 48.02248 39953 ft 483 kts 315°
2026-05-07 16:55 53.32518 47.94485 39954 ft 482 kts 315°
2026-05-07 16:56 53.37352 47.86690 39954 ft 483 kts 315°
2026-05-07 16:56 53.44604 47.74944 39963 ft 483 kts 315°
2026-05-07 16:57 53.49433 47.67096 39963 ft 483 kts 315°
2026-05-07 16:57 53.54257 47.59230 39963 ft 483 kts 315°
2026-05-07 16:58 53.59064 47.51352 39965 ft 482 kts 315°
2026-05-07 16:58 53.63865 47.43461 39965 ft 482 kts 315°
2026-05-07 16:59 53.68663 47.35551 39969 ft 482 kts 315°
2026-05-07 16:59 53.73453 47.27629 39970 ft 481 kts 315°
2026-05-07 17:00 53.78195 47.19760 39970 ft 481 kts 315°
2026-05-07 17:00 53.82993 47.11782 39972 ft 480 kts 315°
2026-05-07 17:01 53.87711 47.03881 39971 ft 480 kts 314°
2026-05-07 17:01 53.92488 46.95857 39966 ft 480 kts 314°
2026-05-07 17:02 53.97197 46.87927 39965 ft 480 kts 314°
2026-05-07 17:02 54.01934 46.79925 39967 ft 480 kts 314°
2026-05-07 17:03 54.06668 46.71908 39965 ft 480 kts 314°
2026-05-07 17:03 54.11330 46.63988 39967 ft 480 kts 314°
2026-05-07 17:04 54.16053 46.55936 39961 ft 480 kts 314°
2026-05-07 17:04 54.20769 46.47868 39960 ft 480 kts 314°
2026-05-07 17:05 54.25482 46.39779 39958 ft 480 kts 314°
2026-05-07 17:05 54.30188 46.31673 39959 ft 480 kts 314°
2026-05-07 17:06 54.34889 46.23550 39959 ft 480 kts 314°
2026-05-07 17:06 54.39577 46.15419 39953 ft 479 kts 314°
2026-05-07 17:07 54.44265 46.07271 39955 ft 479 kts 314°
2026-05-07 17:07 54.48944 45.99099 39955 ft 479 kts 313°
2026-05-07 17:08 54.53607 45.90917 39949 ft 478 kts 313°
2026-05-07 17:08 54.58260 45.82729 39950 ft 478 kts 313°
2026-05-07 17:09 54.62907 45.74526 39947 ft 478 kts 313°
2026-05-07 17:09 54.67552 45.66300 39946 ft 478 kts 313°
2026-05-07 17:10 54.72183 45.58070 39946 ft 477 kts 313°
2026-05-07 17:10 54.77136 45.50428 39938 ft 478 kts 322°
2026-05-07 17:11 54.82540 45.43695 39938 ft 479 kts 323°
2026-05-07 17:11 54.88015 45.37092 39932 ft 479 kts 324°
2026-05-07 17:12 54.93488 45.30489 39928 ft 479 kts 323°
2026-05-07 17:12 54.98946 45.23857 39937 ft 479 kts 323°
2026-05-07 17:13 55.04360 45.17242 39921 ft 479 kts 323°
2026-05-07 17:13 55.09806 45.10560 39922 ft 479 kts 323°
2026-05-07 17:14 55.15248 45.03862 39925 ft 478 kts 323°
2026-05-07 17:14 55.20673 44.97163 39917 ft 477 kts 323°
2026-05-07 17:15 55.26091 44.90450 39914 ft 477 kts 323°
2026-05-07 17:15 55.30986 44.82702 39914 ft 473 kts 308°
2026-05-07 17:16 55.34444 44.72962 39918 ft 470 kts 296°
2026-05-07 17:16 55.37289 44.62626 39908 ft 469 kts 294°
2026-05-07 17:17 55.40028 44.52214 39911 ft 469 kts 294°
2026-05-07 17:17 55.42770 44.41796 39903 ft 469 kts 294°
2026-05-07 17:18 55.45522 44.31380 39908 ft 469 kts 294°
2026-05-07 17:18 55.48253 44.21030 39906 ft 469 kts 294°
2026-05-07 17:19 55.50991 44.10611 39903 ft 468 kts 294°
2026-05-07 17:19 55.53715 44.00188 39900 ft 468 kts 294°
2026-05-07 17:20 55.56435 43.89732 39894 ft 469 kts 294°
2026-05-07 17:20 55.59175 43.79280 39889 ft 469 kts 296°
2026-05-07 17:21 55.62344 43.69195 39902 ft 468 kts 298°
2026-05-07 17:21 55.65592 43.59213 39885 ft 468 kts 298°
2026-05-07 17:22 55.68297 43.50924 39884 ft 467 kts 298°
2026-05-07 17:22 55.71538 43.40936 39889 ft 467 kts 298°
2026-05-07 17:23 55.74766 43.30928 39891 ft 467 kts 298°
2026-05-07 17:23 55.77907 43.20833 39880 ft 466 kts 293°
2026-05-07 17:24 55.79803 43.09931 39887 ft 462 kts 277°
2026-05-07 17:24 55.80613 42.98602 39885 ft 462 kts 275°
2026-05-07 17:25 55.81230 42.87236 39887 ft 462 kts 275°
2026-05-07 17:25 55.81825 42.75865 39883 ft 462 kts 275°
2026-05-07 17:26 55.82433 42.64486 39884 ft 462 kts 275°
2026-05-07 17:26 55.83039 42.53184 39878 ft 462 kts 275°
2026-05-07 17:27 55.83642 42.41784 39889 ft 463 kts 275°
2026-05-07 17:27 55.84233 42.30379 39887 ft 463 kts 275°
2026-05-07 17:28 55.84814 42.18964 39878 ft 463 kts 275°
2026-05-07 17:28 55.85383 42.07553 39886 ft 463 kts 274°
2026-05-07 17:29 55.85942 41.96132 39884 ft 463 kts 274°
2026-05-07 17:29 55.86490 41.84714 39887 ft 462 kts 274°
2026-05-07 17:30 55.86615 41.73292 39887 ft 462 kts 268°
2026-05-07 17:30 55.86330 41.61869 39885 ft 462 kts 267°
2026-05-07 17:31 55.85971 41.50450 39880 ft 462 kts 266°
2026-05-07 17:31 55.85599 41.39027 39665 ft 462 kts 266°
2026-05-07 17:32 55.85413 41.33323 39435 ft 462 kts 266°
2026-05-07 17:32 55.85227 41.27614 39207 ft 462 kts 266°
2026-05-07 17:32 55.85039 41.21917 38982 ft 461 kts 266°
2026-05-07 17:32 55.84849 41.16221 38769 ft 461 kts 266°
2026-05-07 17:33 55.84657 41.10545 38536 ft 459 kts 266°
2026-05-07 17:33 55.84463 41.04889 38272 ft 458 kts 266°
2026-05-07 17:33 55.84267 40.99245 37813 ft 455 kts 266°
2026-05-07 17:33 55.84070 40.93639 37198 ft 453 kts 266°
2026-05-07 17:34 55.83870 40.88063 36543 ft 452 kts 266°
2026-05-07 17:34 55.83669 40.82483 35883 ft 451 kts 266°
2026-05-07 17:34 55.83465 40.76919 35210 ft 451 kts 266°
2026-05-07 17:34 55.83258 40.71336 34467 ft 453 kts 266°
2026-05-07 17:35 55.83047 40.65721 33656 ft 456 kts 266°
2026-05-07 17:35 55.82834 40.60080 32823 ft 458 kts 266°
2026-05-07 17:35 55.82611 40.54432 32030 ft 458 kts 266°
2026-05-07 17:35 55.82383 40.48847 31205 ft 459 kts 266°
2026-05-07 17:36 55.82147 40.43100 30333 ft 462 kts 266°
2026-05-07 17:36 55.81913 40.37468 29382 ft 464 kts 266°
2026-05-07 17:36 55.81675 40.31752 28584 ft 462 kts 266°
2026-05-07 17:36 55.81436 40.26091 27974 ft 456 kts 265°
2026-05-07 17:37 55.81200 40.20551 27765 ft 442 kts 265°
2026-05-07 17:37 55.80968 40.15185 27634 ft 428 kts 265°
2026-05-07 17:37 55.80743 40.09998 27490 ft 414 kts 265°
2026-05-07 17:37 55.80522 40.04972 27344 ft 401 kts 265°
2026-05-07 17:38 55.80306 40.00096 27188 ft 390 kts 265°
2026-05-07 17:38 55.80095 39.95368 27010 ft 379 kts 265°
2026-05-07 17:38 55.79888 39.90766 26822 ft 369 kts 265°
2026-05-07 17:38 55.79682 39.86233 26323 ft 368 kts 265°
2026-05-07 17:39 55.79475 39.81712 25893 ft 365 kts 265°
2026-05-07 17:39 55.79244 39.77234 25654 ft 365 kts 263°
2026-05-07 17:39 55.78939 39.72723 25463 ft 369 kts 263°
2026-05-07 17:39 55.78622 39.68197 25238 ft 369 kts 263°
2026-05-07 17:40 55.78309 39.63680 25020 ft 368 kts 263°
2026-05-07 17:40 55.78001 39.59178 24805 ft 367 kts 263°
2026-05-07 17:40 55.77696 39.54694 24585 ft 364 kts 263°
2026-05-07 17:40 55.77393 39.50247 24369 ft 361 kts 263°
2026-05-07 17:41 55.77091 39.45828 24155 ft 360 kts 263°
2026-05-07 17:41 55.76789 39.41430 23947 ft 358 kts 263°
2026-05-07 17:41 55.76539 39.37761 23881 ft 358 kts 263°
2026-05-07 17:41 55.76235 39.33375 23843 ft 357 kts 262°
2026-05-07 17:42 55.75929 39.29026 23496 ft 353 kts 262°
2026-05-07 17:42 55.75623 39.24701 23206 ft 354 kts 262°
2026-05-07 17:42 55.75315 39.20367 23021 ft 354 kts 262°
2026-05-07 17:42 55.75007 39.16040 22825 ft 353 kts 262°
2026-05-07 17:43 55.74698 39.11728 22640 ft 352 kts 262°
2026-05-07 17:43 55.74389 39.07433 22449 ft 350 kts 262°
2026-05-07 17:43 55.74080 39.03146 22275 ft 349 kts 262°
2026-05-07 17:43 55.73770 38.98876 22087 ft 348 kts 262°
2026-05-07 17:44 55.73484 38.94615 21908 ft 348 kts 265°
2026-05-07 17:44 55.73499 38.90328 21697 ft 348 kts 272°
2026-05-07 17:44 55.73696 38.86066 21454 ft 346 kts 274°
2026-05-07 17:44 55.73917 38.81813 21221 ft 345 kts 274°
2026-05-07 17:45 55.74134 38.77583 20992 ft 344 kts 274°
2026-05-07 17:45 55.74347 38.73374 20747 ft 341 kts 273°
2026-05-07 17:45 55.74553 38.69195 20509 ft 339 kts 273°
2026-05-07 17:45 55.74756 38.65007 20381 ft 355 kts 273°
2026-05-07 17:46 55.74988 38.60582 20300 ft 363 kts 275°
2026-05-07 17:46 55.75625 38.56276 19970 ft 362 kts 292°
2026-05-07 17:46 55.76902 38.52487 19871 ft 351 kts 301°
2026-05-07 17:46 55.78283 38.49024 19857 ft 336 kts 302°
2026-05-07 17:47 55.79612 38.45729 19859 ft 321 kts 301°
2026-05-07 17:47 55.80899 38.42510 19867 ft 318 kts 301°
2026-05-07 17:47 55.82176 38.39297 19869 ft 318 kts 301°
2026-05-07 17:47 55.83463 38.36102 19870 ft 319 kts 303°
2026-05-07 17:48 55.84815 38.32994 19772 ft 314 kts 304°
2026-05-07 17:48 55.86166 38.29931 19218 ft 317 kts 303°
2026-05-07 17:48 55.87522 38.26841 18808 ft 316 kts 303°
2026-05-07 17:48 55.88864 38.23766 18476 ft 312 kts 303°
2026-05-07 17:49 55.90190 38.20716 18190 ft 311 kts 303°
2026-05-07 17:49 55.91508 38.17674 17861 ft 310 kts 302°
2026-05-07 17:49 55.92820 38.14638 17557 ft 308 kts 302°
2026-05-07 17:49 55.94125 38.11613 17267 ft 307 kts 302°
2026-05-07 17:50 55.95423 38.08599 16976 ft 306 kts 302°
2026-05-07 17:50 55.96715 38.05597 16689 ft 304 kts 302°
2026-05-07 17:50 55.97998 38.02610 16405 ft 303 kts 302°
2026-05-07 17:50 55.99274 37.99628 16107 ft 301 kts 302°
2026-05-07 17:51 56.00339 37.96471 15912 ft 293 kts 288°
2026-05-07 17:51 56.00893 37.93014 15880 ft 288 kts 278°
2026-05-07 17:51 56.01273 37.89496 15879 ft 288 kts 277°
2026-05-07 17:51 56.01635 37.85975 15881 ft 288 kts 277°
2026-05-07 17:52 56.02004 37.82455 15908 ft 289 kts 278°
2026-05-07 17:52 56.02656 37.79037 15886 ft 295 kts 294°
2026-05-07 17:52 56.03946 37.76170 15576 ft 303 kts 314°
2026-05-07 17:52 56.05797 37.74195 15028 ft 315 kts 328°
2026-05-07 17:53 56.07791 37.72577 14537 ft 314 kts 329°
2026-05-07 17:53 56.09771 37.71000 14066 ft 309 kts 329°
2026-05-07 17:53 56.11754 37.69437 13904 ft 314 kts 332°
2026-05-07 17:53 56.13920 37.68642 13882 ft 324 kts 353°
2026-05-07 17:54 56.16167 37.68797 13502 ft 325 kts 359°
2026-05-07 17:54 56.18425 37.69173 12907 ft 325 kts 360°
2026-05-07 17:54 56.20658 37.69560 12244 ft 321 kts 359°
2026-05-07 17:54 56.22881 37.69928 11931 ft 321 kts 359°
2026-05-07 17:55 56.25113 37.70283 11883 ft 322 kts 359°
2026-05-07 17:55 56.27305 37.70626 11889 ft 320 kts 359°
2026-05-07 17:55 56.29483 37.70485 11772 ft 306 kts 339°
2026-05-07 17:55 56.31295 37.68810 11235 ft 288 kts 309°
2026-05-07 17:56 56.32618 37.66169 10798 ft 282 kts 302°
2026-05-07 17:56 56.33835 37.63435 10541 ft 277 kts 301°
2026-05-07 17:56 56.35038 37.60743 10311 ft 275 kts 301°
2026-05-07 17:56 56.36244 37.58073 10140 ft 275 kts 301°
2026-05-07 17:57 56.37458 37.55331 10036 ft 290 kts 298°
2026-05-07 17:57 56.38251 37.53282 9995 ft 299 kts 296°
2026-05-07 17:57 56.39781 37.49108 9899 ft 300 kts 296°
2026-05-07 17:57 56.40935 37.45944 9894 ft 303 kts 296°
2026-05-07 17:58 56.42094 37.42761 9895 ft 303 kts 296°
2026-05-07 17:58 56.43010 37.39408 9894 ft 293 kts 278°
2026-05-07 17:58 56.43262 37.35814 9895 ft 287 kts 269°
2026-05-07 17:58 56.43354 37.32217 9897 ft 287 kts 268°
2026-05-07 17:59 56.43436 37.28614 9898 ft 287 kts 268°
2026-05-07 17:59 56.43524 37.25010 9896 ft 287 kts 268°
2026-05-07 17:59 56.43367 37.21450 9888 ft 283 kts 252°
2026-05-07 17:59 56.42648 37.18164 9891 ft 281 kts 244°
2026-05-07 18:00 56.41787 37.14994 9893 ft 281 kts 243°
2026-05-07 18:00 56.40884 37.11860 9890 ft 281 kts 239°
2026-05-07 18:00 56.39527 37.09346 9896 ft 285 kts 214°
2026-05-07 18:00 56.37597 37.08383 9897 ft 299 kts 187°
2026-05-07 18:01 56.35534 37.09317 9891 ft 319 kts 159°
2026-05-07 18:01 56.33810 37.11985 9880 ft 339 kts 134°
2026-05-07 18:01 56.32506 37.15577 9881 ft 340 kts 135°
2026-05-07 18:01 56.30988 37.18805 9887 ft 336 kts 140°
2026-05-07 18:02 56.27728 37.24795 9886 ft 334 kts 143°
2026-05-07 18:02 56.26056 37.27651 9685 ft 325 kts 146°
2026-05-07 18:02 56.24254 37.29631 9301 ft 287 kts 169°
2026-05-07 18:03 56.22430 37.30660 8965 ft 265 kts 173°
2026-05-07 18:03 56.20707 37.31516 8564 ft 251 kts 174°
2026-05-07 18:03 56.19041 37.32365 8002 ft 249 kts 170°
2026-05-07 18:03 56.17528 37.34009 7385 ft 266 kts 140°
2026-05-07 18:04 56.16703 37.37004 6896 ft 276 kts 103°
2026-05-07 18:04 56.16838 37.40445 6296 ft 280 kts 76°
2026-05-07 18:04 56.17376 37.43775 5877 ft 276 kts 73°
2026-05-07 18:04 56.17929 37.47083 5669 ft 275 kts 73°
2026-05-07 18:05 56.18446 37.50299 5471 ft 270 kts 74°
2026-05-07 18:05 56.18950 37.53530 5289 ft 268 kts 74°
2026-05-07 18:05 56.19331 37.56819 5085 ft 263 kts 89°
2026-05-07 18:05 56.18948 37.59868 4955 ft 242 kts 124°
2026-05-07 18:06 56.17961 37.62116 4818 ft 222 kts 139°
2026-05-07 18:06 56.16899 37.64050 4694 ft 220 kts 140°
2026-05-07 18:06 56.15807 37.66013 4631 ft 220 kts 140°
2026-05-07 18:06 56.14745 37.67934 4578 ft 219 kts 139°
2026-05-07 18:07 56.13677 37.69878 4534 ft 215 kts 139°
2026-05-07 18:07 56.12646 37.71763 4297 ft 210 kts 139°
2026-05-07 18:07 56.11642 37.73599 4105 ft 204 kts 139°
2026-05-07 18:07 56.10642 37.75421 4003 ft 205 kts 139°
2026-05-07 18:08 56.09515 37.76928 3989 ft 200 kts 161°
2026-05-07 18:08 56.08198 37.77187 3993 ft 184 kts 195°
2026-05-07 18:08 56.07004 37.76609 3990 ft 175 kts 202°
2026-05-07 18:08 56.05854 37.75923 3994 ft 174 kts 202°
2026-05-07 18:09 56.04710 37.75240 3996 ft 174 kts 202°
2026-05-07 18:09 56.03573 37.74574 4002 ft 168 kts 202°
2026-05-07 18:09 56.02522 37.73804 3836 ft 160 kts 214°
2026-05-07 18:09 56.01753 37.72383 3422 ft 162 kts 243°
2026-05-07 18:10 56.01374 37.70469 3092 ft 165 kts 255°
2026-05-07 18:10 56.01130 37.68501 2907 ft 159 kts 259°
2026-05-07 18:10 56.00877 37.66631 2820 ft 150 kts 254°
2026-05-07 18:10 56.00604 37.64871 2730 ft 146 kts 255°
2026-05-07 18:11 56.00338 37.63113 2443 ft 148 kts 255°
2026-05-07 18:11 56.00162 37.61903 2183 ft 150 kts 255°
2026-05-07 18:11 55.99905 37.60118 1997 ft 147 kts 255°
2026-05-07 18:11 55.99640 37.58296 1998 ft 156 kts 255°
2026-05-07 18:12 55.99369 37.56460 1973 ft 148 kts 255°
2026-05-07 18:12 55.99111 37.54725 1811 ft 143 kts 255°
2026-05-07 18:12 55.98858 37.53028 1632 ft 141 kts 254°
2026-05-07 18:12 55.98606 37.51337 1442 ft 141 kts 255°
2026-05-07 18:13 55.98353 37.49636 1263 ft 142 kts 255°
2026-05-07 18:13 55.98097 37.47916 1077 ft 144 kts 255°
2026-05-07 18:13 55.97839 37.46186 882 ft 145 kts 255°
2026-05-07 18:13 55.97579 37.44445 692 ft 145 kts 255°
2026-05-07 18:14 55.97347 37.42887 665 ft 131 kts 255°
2026-05-07 18:14 55.97137 37.41473 648 ft 105 kts 255°
2026-05-07 18:14 55.96971 37.40357 646 ft 83 kts 255°
2026-05-07 18:14 55.96875 37.39713 646 ft 31 kts 256°
2026-05-07 18:15 55.96822 37.39334 648 ft 35 kts 258°
2026-05-07 18:15 55.96764 37.38909 645 ft 27 kts 272°
2026-05-07 18:15 55.96835 37.38790 645 ft 13 kts 339°
2026-05-07 18:15 55.96922 37.38747 645 ft 13 kts 347°
2026-05-07 18:16 55.97028 37.38696 646 ft 21 kts 343°
2026-05-07 18:16 55.97102 37.38661 645 ft 0 kts 345°
2026-05-07 18:17 55.97103 37.38661 645 ft 0 kts 345°
2026-05-07 18:17 55.97108 37.38658 645 ft 4 kts 345°
2026-05-07 18:18 55.97132 37.38666 648 ft 3 kts 27°
2026-05-07 18:18 55.97161 37.38722 648 ft 9 kts 56°
2026-05-07 18:18 55.97188 37.38870 647 ft 18 kts 76°
2026-05-07 18:18 55.97228 37.39147 645 ft 25 kts 75°
2026-05-07 18:19 55.97273 37.39456 645 ft 25 kts 75°
2026-05-07 18:19 55.97318 37.39758 649 ft 25 kts 73°
2026-05-07 18:19 55.97361 37.40037 648 ft 24 kts 76°
2026-05-07 18:19 55.97405 37.40330 648 ft 26 kts 74°
2026-05-07 18:20 55.97455 37.40660 645 ft 28 kts 75°
2026-05-07 18:20 55.97507 37.41000 647 ft 27 kts 75°
2026-05-07 18:20 55.97554 37.41314 646 ft 26 kts 75°
2026-05-07 18:20 55.97598 37.41565 647 ft 13 kts 53°
2026-05-07 18:21 55.97652 37.41592 645 ft 7 kts 348°
2026-05-07 18:21 55.97706 37.41569 645 ft 9 kts 345°
2026-05-07 18:21 55.97776 37.41535 645 ft 11 kts 345°
2026-05-07 18:21 55.97834 37.41508 645 ft 0 kts 345°
2026-05-07 18:22 55.97841 37.41504 645 ft 6 kts 345°
2026-05-07 18:22 55.97898 37.41459 645 ft 8 kts 319°
2026-05-07 18:23 55.97931 37.41370 645 ft 6 kts 291°
2026-05-07 18:23 55.97932 37.41363 645 ft 0 kts 290°
2026-05-07 18:23 55.97937 37.41331 646 ft 6 kts 280°
2026-05-07 18:23 55.97932 37.41251 645 ft 0 kts 260°
2026-05-07 18:24 55.97932 37.41249 645 ft 2 kts 257°
2026-05-07 18:24 55.97929 37.41229 645 ft 2 kts 257°
2026-05-07 18:24 55.97926 37.41203 645 ft 1 kts 256°
2026-05-07 18:24 55.97925 37.41196 645 ft 0 kts 256°
2026-05-07 18:26 55.97924 37.41195 645 ft 1 kts 256°